Regional Weather Roundup
Issued by NWS

Home | Current Version | Previous Version | Text Only | Print | Product List | Glossary Off
Versions: 1 2 3 4 5 6 7 8 9 10 11 12 13 14 15 16 17 18 19 20 21 22 23 24 25 26 27 28 29 30 31 32 33 34 35 36 37 38 39 40 41 42 43 44 45 46 47 48 49 50

000
ASUS43 KMKX 191520
RWRWI

WISCONSIN REGIONAL WEATHER ROUNDUP
NATIONAL WEATHER SERVICE MILWAUKEE/SULLIVAN WI
900 AM CST MON FEB 19 2018

NOTE: "FAIR" INDICATES FEW OR NO CLOUDS BELOW 12,000 FEET WITH NO
SIGNIFICANT WEATHER AND/OR OBSTRUCTIONS TO VISIBILITY.

WIZ001-002-006>008-014>016-023>028-191600-
NORTHWEST WISCONSIN

CITY           SKY/WX    TMP DP  RH WIND       PRES   REMARKS
SUPERIOR ARPT  LGT SNOW  15  11  83 NE9G20    30.11R WCI   3
ASHLAND        FOG       17  15  92 N17       30.08R VSB 1/4 WCI   1
HAYWARD        FLURRIES  19  14  81 NE14      29.98S WCI   6
SIREN          CLOUDY    20  15  79 NE15      30.00R WCI   7
CUMBERLAND     CLOUDY    21  14  73 NE15G22   29.93R WCI   8
RICE LAKE      LGT SNOW  23  17  78 N18       29.95R WCI   8
CHETEK         CLOUDY    24  17  74 NE9G20    29.93R WCI  14
LADYSMITH      CLOUDY    23  17  80 N14       29.94S WCI  10
EAU CLAIRE     CLOUDY    27  20  75 N16G24    29.88R WCI  15
MENOMONIE      MIX PCPN  26  20  79 N15G23    29.90R WCI  13
NEW RICHMOND   MIX PCPN  23  16  75 NE16G26   29.92S WCI   9
OSCEOLA        CLOUDY    22  16  77 NE14G24   29.98R WCI  10
$$

WIZ003>005-009-010-017-018-191600-
NORTH CENTRAL WISCONSIN

CITY           SKY/WX    TMP DP  RH WIND       PRES   REMARKS
MANITOWISH WTR FLURRIES  17  16  98 N10       29.95S WCI   4
ARBOR VITAE    CLOUDY    21  19  92 N13G20    29.93R WCI   9
WOODRUFF       CLOUDY    21  19  92 N13G20    29.93R WCI   9
RHINELANDER    CLOUDY    23  21  92 NE9       29.91R WCI  13
EAGLE RIVER    CLOUDY    20  19  97 NE18      29.93R WCI   5
LAND O LAKES   CLOUDY    19  18  94 NE14G20   29.97R WCI   6
PHILLIPS       CLOUDY    19  16  91 N16G22    29.92S WCI   4
TOMAHAWK       CLOUDY    23  19  85 N8        29.91R WCI  14
MEDFORD        CLOUDY    27  22  81 N13       29.87R WCI  16
MERRILL        CLOUDY    29  26  86 NE9       29.88R WCI  21
$$

WIZ029-030-035-036-043>047-191600-
CENTRAL WISCONSIN

CITY           SKY/WX    TMP DP  RH WIND       PRES   REMARKS
WAUSAU         CLOUDY    29  26  89 NE7       29.86R WCI  22
MOSINEE        CLOUDY    27  27 100 NE7       29.87R FOG     WCI  19
MARSHFIELD     CLOUDY    29  27  92 NE9       29.83R FOG     WCI  20
STEVENS POINT  CLOUDY    28  28 100 NE9       29.86R FOG     WCI  19
WAUPACA        PTSUNNY   33  31  91 N5        29.86S WCI  28
WAUTOMA        CLOUDY    34  30  85 NE6       29.84S WCI  29
WISC RAPIDS    CLOUDY    31  27  85 NE10      29.85R FOG     WCI  22
CAMP DOUGLAS   PTSUNNY   36  31  81 CALM      29.81R
$$

WIZ011>013-019>022-031-037>040-048>050-191600-
NORTHEAST WISCONSIN

CITY           SKY/WX    TMP DP  RH WIND       PRES   REMARKS
ANTIGO         CLOUDY    26  26 100 NE13      29.88R WCI  15
SHAWANO        CLOUDY    30  28  90 CALM      29.90R
OCONTO         FAIR      33  30  88 CALM      29.89S
STURGEON BAY   FAIR      37  33  85 CALM      29.88F FOG
GREEN BAY      PTSUNNY   35  30  82 NE6       29.88S HAZE    WCI  30
MANITOWOC      FAIR      37  35  92 CALM      29.88S FOG
APPLETON       PTSUNNY   36  28  75 CALM      29.84S
CLINTONVILLE   CLOUDY    31  27  86 NE8       29.88S FOG     WCI  24
OSHKOSH        PTSUNNY   37  32  82 NE5       29.83F WCI  33
$$

WIZ032>034-041-042-053>061-191600-
SOUTHWEST WISCONSIN

CITY           SKY/WX    TMP DP  RH WIND       PRES   REMARKS
LA CROSSE      CLOUDY    35  30  82 NW9       29.80S WCI  28
SPARTA         CLOUDY    34  31  87 CALM      29.81F
VIROQUA        CLOUDY    36  33  88 NE6       29.77S WCI  31
BOSCOBEL       CLOUDY    38  32  79 CALM      29.79R
PRAIRIE DU CHI CLOUDY    37  31  78 E3        29.78R
PLATTEVILLE    CLOUDY    36  36 100 E9        29.77S WCI  29
$$

WIZ056-057-062-063-064-067-068-191600-
SOUTH CENTRAL WISCONSIN

CITY           SKY/WX    TMP DP  RH WIND       PRES   REMARKS
REEDSBURG      CLOUDY    37  32  83 NE6       29.78F WCI  32
BARABOO/DELLS  CLOUDY    36  31  83 NE3       29.80R
LONE ROCK      CLOUDY    36  34  92 SE6       29.79S WCI  31
MINERAL POINT  DRIZZLE   37  37 100 E7        29.77F WCI  32
MADISON        CLOUDY    37  35  92 S5        29.81F WCI  33
MIDDLETON      CLOUDY    38  35  89 SE3       29.80R
WATERTOWN      FAIR      37  37  98 SE3       29.81S
MONROE         CLOUDY    36  34  93 E3        29.78S
JANESVILLE     CLOUDY    37  37 100 SE6       29.80F FOG     WCI  33
$$

WIZ051-052-058>065-066-070>072-191600-
SOUTHEAST WISCONSIN

CITY           SKY/WX    TMP DP  RH WIND       PRES   REMARKS
MILWAUKEE      CLOUDY    41  38  89 CALM      29.82F
WAUKESHA       MOSUNNY   36  34  93 CALM      29.83F
MILWAUKEE/TIMM MOSUNNY   39  34  81 CALM      29.83F
RACINE         FAIR      39  37  92 S3        29.84F FOG
BURLINGTON     PTSUNNY   38  36  91 CALM      29.82S FOG
KENOSHA        CLOUDY    42  38  85 S6        29.84R FOG
FOND DU LAC    CLOUDY    38  31  76 NE5       29.83F WCI  34
SHEBOYGAN      FAIR      36  33  89 CALM      29.84F FOG
WEST BEND      FAIR      37  36  93 CALM      29.82F
JUNEAU         FAIR      36  33  88 E5        29.82F WCI  32
$$

LSZ147-162-191600-
LAKE SUPERIOR

STATION/POSITION TIME  TEMP    WIND        PRES    WAVE
                       AIR SEA DIR/SP/G            HT/PER
                 (UTC) (F)     (DEG/KT/KT) (MB)    (FT/S)
DEVILS ISLAND    1500   17      40/ 22/ 25 1021.0R
SAXON HARBOR     1430   20      50/ 20/ 23 1017.3F
$$

LMZ867-665-643>646-191600-
LAKE MICHIGAN

STATION/POSITION TIME  TEMP    WIND        PRES    WAVE
                       AIR SEA DIR/SP/G            HT/PER
                 (UTC) (F)     (DEG/KT/KT) (MB)    (FT/S)
NORTHPORT PIER   1440   32                 1012.9R
KEWAUNEE LAKESHO 1454   36      CALM  /  1 1010.8F
SHEBOYGAN LAKESH 1500   36      CALM  /  1 1011.3F
PORT WASHINGTON  1440   36      60/  3/  4 1011.2F
MILWAUKEE LAKESH 1500   34     360/  1/  2   N/A
KENOSHA   LAKESH 1500   35     180/  7/  9 1011.2
$$

TC  - TEMPERATURE IN CELSIUS
VSB - VISIBILITY IN STATUTE MILES
WCI - WIND CHILL INDEX
HX  - HEAT INDEX




USA.gov is the U.S. government's official web portal to all federal, state and local government web resources and services.